M I D A S
Marine Information and Data Acquisition System
Tripno 2213 of the Zeeleeuw from 2011-11-07 06:15:27 to 2011-11-07 18:42:37
Back to CruiseResearch ActivitiesStationsMapUnderway DataData graphs

EquipmentUnitsComments
TimeDGPSUTC
LatitudeDGPSDM.mWGS84
LongitudeDGPSDM.mWGS84
SpeedMeteo Stationm/sRelative wind speed
DirectionMeteo StationdegRelative wind direction
TemperatureMeteo Stationdeg CelciusAir temperature
PressureMeteo StationPaAtmospheric pressure
HumidityMeteo Station%Relative humidity
Missing or incorrect values are displayed as -999
Metereological data collected by the RV Zeeleeuw from 2011-11-07 06:05:50 to 2011-11-07 18:51:56
                                                                                    Next 1000 lines
Time Latitude Longitude Speed Direction Temperature Pressure Humidity
2011-11-07 06:06:01 51°13.634 2°56.019 7.2 308 11.6 101950 50
2011-11-07 06:06:05 51°13.634 2°56.019 7.5 22 11.6 101950 52
2011-11-07 06:06:10 51°13.634 2°56.019 7.1 301 11.6 101950 52
2011-11-07 06:06:15 51°13.634 2°56.018 5.8 246 11.6 101960 51
2011-11-07 06:06:21 51°13.634 2°56.018 5.3 303 11.6 101960 51
2011-11-07 06:06:25 51°13.634 2°56.018 6.1 22 11.6 101940 52
2011-11-07 06:06:30 51°13.634 2°56.018 5.7 302 11.6 101940 52
2011-11-07 06:06:36 51°13.633 2°56.018 4.8 26 11.6 101940 51
2011-11-07 06:06:41 51°13.633 2°56.018 5.8 307 11.6 101940 51
2011-11-07 06:06:45 51°13.633 2°56.018 3.9 28 11.6 101930 50
2011-11-07 06:06:51 51°13.633 2°56.018 5.8 308 11.6 101930 50
2011-11-07 06:06:55 51°13.633 2°56.018 5.2 25 11.6 101940 52
2011-11-07 06:07:01 51°13.633 2°56.016 5.3 303 11.6 101940 52
2011-11-07 06:07:05 51°13.633 2°56.015 4.8 21 11.6 101940 52
2011-11-07 06:07:11 51°13.634 2°56.011 5.2 306 11.6 101940 52
2011-11-07 06:07:16 51°13.635 2°56.006 4.5 25 11.6 101940 52
2011-11-07 06:07:21 51°13.636 2°56.001 4.6 302 11.6 101940 52
2011-11-07 06:07:26 51°13.637 2°55.994 5.5 23 11.6 101940 50
2011-11-07 06:07:33 51°13.639 2°55.983 6.1 309 11.6 101940 50
2011-11-07 06:07:38 51°13.641 2°55.975 3.6 22 11.6 101940 51
2011-11-07 06:07:44 51°13.643 2°55.964 4.3 307 11.6 101940 51
2011-11-07 06:07:49 51°13.645 2°55.954 5 256 11.6 101940 50
2011-11-07 06:07:54 51°13.647 2°55.945 3.6 303 11.6 101940 50
2011-11-07 06:07:59 51°13.648 2°55.936 3.3 19 11.6 101950 50
2011-11-07 06:08:03 51°13.65 2°55.929 1.7 57 11.6 101950 50
2011-11-07 06:08:09 51°13.652 2°55.918 4.1 257 11.6 101950 52
2011-11-07 06:08:14 51°13.655 2°55.908 4.3 307 11.6 101950 52
2011-11-07 06:08:19 51°13.658 2°55.899 4.1 21 11.6 101940 52
2011-11-07 06:08:24 51°13.66 2°55.889 3.9 302 11.6 101940 52
2011-11-07 06:08:29 51°13.664 2°55.88 3.5 266 11.6 101940 52
2011-11-07 06:08:34 51°13.667 2°55.87 3.4 305 11.6 101940 52
2011-11-07 06:08:39 51°13.671 2°55.86 3.2 262 11.6 101950 50
2011-11-07 06:08:44 51°13.675 2°55.85 4.9 310 11.6 101950 50
2011-11-07 06:08:49 51°13.68 2°55.84 4.6 255 11.6 101940 52
2011-11-07 06:08:54 51°13.684 2°55.83 3.2 304 11.6 101940 52
2011-11-07 06:08:59 51°13.689 2°55.82 3.8 269 11.6 101940 52
2011-11-07 06:09:04 51°13.694 2°55.811 2.5 306 11.6 101940 52
2011-11-07 06:09:09 51°13.699 2°55.801 4 24 11.6 101940 51
2011-11-07 06:09:14 51°13.704 2°55.791 3.5 304 11.6 101940 51
2011-11-07 06:09:18 51°13.708 2°55.784 4.9 265 11.6 101940 51
2011-11-07 06:09:23 51°13.714 2°55.774 2.9 57 11.6 101940 51
2011-11-07 06:09:29 51°13.72 2°55.763 1.9 265 11.6 101940 51
2011-11-07 06:09:34 51°13.725 2°55.753 3.4 57 11.6 101940 51
2011-11-07 06:09:39 51°13.73 2°55.744 3.3 267 11.6 101940 51
2011-11-07 06:09:44 51°13.736 2°55.735 6.6 308 11.6 101940 51
2011-11-07 06:09:49 51°13.741 2°55.726 7.5 23 11.6 101940 52
2011-11-07 06:09:54 51°13.747 2°55.718 4.6 308 11.6 101940 52
2011-11-07 06:09:59 51°13.752 2°55.71 5 269 11.6 101940 52
2011-11-07 06:10:04 51°13.758 2°55.703 4.3 308 11.6 101940 52
2011-11-07 06:10:09 51°13.764 2°55.696 4.4 268 11.6 101950 52
2011-11-07 06:10:14 51°13.771 2°55.689 3.9 56 11.6 101950 52
2011-11-07 06:10:19 51°13.777 2°55.683 3.7 270 11.6 101950 52
2011-11-07 06:10:24 51°13.783 2°55.677 5.8 52 11.6 101950 52
2011-11-07 06:10:29 51°13.789 2°55.671 5.4 21 11.6 101940 51
2011-11-07 06:10:34 51°13.795 2°55.666 6.5 55 11.6 101940 51
2011-11-07 06:10:39 51°13.802 2°55.661 6.7 24 11.6 101950 51
2011-11-07 06:10:44 51°13.808 2°55.657 7.2 59 11.6 101950 51
2011-11-07 06:10:49 51°13.815 2°55.653 6.2 18 11.6 101950 51
2011-11-07 06:10:54 51°13.821 2°55.649 7.3 50 11.6 101950 51
2011-11-07 06:10:59 51°13.827 2°55.645 8.5 25 11.5 101950 51
2011-11-07 06:11:04 51°13.834 2°55.641 6.6 52 11.5 101950 51
2011-11-07 06:11:09 51°13.841 2°55.638 5.7 25 11.5 101960 51
2011-11-07 06:11:14 51°13.848 2°55.635 6.4 51 11.5 101960 51
2011-11-07 06:11:19 51°13.855 2°55.632 6.8 25 11.5 101950 50
2011-11-07 06:11:24 51°13.862 2°55.631 6.8 55 11.5 101950 50
2011-11-07 06:11:29 51°13.869 2°55.629 6.2 26 11.5 101960 52
2011-11-07 06:11:34 51°13.876 2°55.627 6.2 58 11.5 101960 52
2011-11-07 06:11:39 51°13.883 2°55.626 6.1 20 11.5 101950 50
2011-11-07 06:11:44 51°13.89 2°55.626 5.9 59 11.5 101950 50
2011-11-07 06:11:49 51°13.897 2°55.626 6.3 24 11.5 101960 52
2011-11-07 06:11:54 51°13.904 2°55.626 6 58 11.5 101960 52
2011-11-07 06:11:59 51°13.91 2°55.627 3.3 21 11.5 101950 52
2011-11-07 06:12:04 51°13.916 2°55.629 5.1 51 11.5 101950 52
2011-11-07 06:12:09 51°13.923 2°55.63 6 22 11.5 101950 51
2011-11-07 06:12:14 51°13.928 2°55.632 5.9 56 11.5 101950 51
2011-11-07 06:12:19 51°13.934 2°55.635 7 24 11.5 101950 52
2011-11-07 06:12:24 51°13.939 2°55.637 6.8 53 11.5 101950 52
2011-11-07 06:12:29 51°13.944 2°55.64 6.3 21 11.5 101950 52
2011-11-07 06:12:34 51°13.949 2°55.643 4.2 58 11.5 101950 52
2011-11-07 06:12:40 51°13.954 2°55.647 2.7 19 11.6 101940 51
2011-11-07 06:12:43 51°13.957 2°55.648 4.5 56 11.6 101940 51
2011-11-07 06:12:49 51°13.961 2°55.652 6.3 26 11.5 101950 51
2011-11-07 06:12:54 51°13.964 2°55.654 3.7 56 11.5 101950 51
2011-11-07 06:12:59 51°13.965 2°55.655 3.7 26 11.6 101940 51
2011-11-07 06:13:04 51°13.966 2°55.655 1 51 11.6 101940 51
2011-11-07 06:13:08 51°13.966 2°55.654 3.4 22 11.6 101940 52
2011-11-07 06:13:13 51°13.966 2°55.653 4.3 52 11.6 101940 52
2011-11-07 06:13:18 51°13.966 2°55.65 3.3 20 11.6 101950 51
2011-11-07 06:13:23 51°13.966 2°55.647 2.9 35 11.6 101950 51
2011-11-07 06:13:28 51°13.966 2°55.643 2.1 38 11.6 101940 52
2011-11-07 06:13:32 51°13.966 2°55.64 3.1 44 11.6 101940 52
2011-11-07 06:13:37 51°13.966 2°55.635 3.3 39 11.6 101940 51
2011-11-07 06:13:42 51°13.967 2°55.629 3.1 34 11.6 101940 51
2011-11-07 06:13:47 51°13.968 2°55.623 3.2 25 11.6 101940 51
2011-11-07 06:13:52 51°13.97 2°55.617 3.3 24 11.6 101940 51
2011-11-07 06:13:57 51°13.972 2°55.61 3.1 16 11.6 101940 50
2011-11-07 06:14:02 51°13.974 2°55.602 4 12 11.6 101940 50
2011-11-07 06:14:07 51°13.978 2°55.593 4.4 8 11.6 101940 52
2011-11-07 06:14:13 51°13.983 2°55.583 3.6 24 11.6 101940 52
2011-11-07 06:14:17 51°13.986 2°55.576 2.8 7 11.6 101940 51
2011-11-07 06:14:22 51°13.991 2°55.566 4.3 355 11.6 101940 51
2011-11-07 06:14:27 51°13.997 2°55.556 7.2 4 11.6 101940 51
2011-11-07 06:14:32 51°14.003 2°55.545 6.8 8 11.6 101940 51
2011-11-07 06:14:37 51°14.009 2°55.534 6.6 13 11.5 101940 52
2011-11-07 06:14:41 51°14.015 2°55.525 4.5 9 11.5 101940 52
2011-11-07 06:14:46 51°14.023 2°55.515 3.5 3 11.5 101940 51
2011-11-07 06:14:51 51°14.032 2°55.503 5.8 355 11.5 101940 51
2011-11-07 06:14:56 51°14.041 2°55.493 7 2 11.5 101940 51
2011-11-07 06:15:01 51°14.05 2°55.483 5.1 356 11.5 101940 51
2011-11-07 06:15:05 51°14.058 2°55.475 5.5 356 11.5 101940 51
2011-11-07 06:15:10 51°14.069 2°55.465 6.6 353 11.5 101940 51
2011-11-07 06:15:15 51°14.08 2°55.456 6.8 7 11.5 101940 52
2011-11-07 06:15:21 51°14.093 2°55.445 5.9 354 11.5 101940 52
2011-11-07 06:15:25 51°14.102 2°55.437 9.1 351 11.5 101930 51
2011-11-07 06:15:30 51°14.114 2°55.428 7.1 346 11.5 101930 51
2011-11-07 06:15:35 51°14.125 2°55.418 6.3 347 11.5 101940 51
2011-11-07 06:15:41 51°14.139 2°55.406 8.8 357 11.5 101940 51
2011-11-07 06:15:46 51°14.151 2°55.396 7.9 357 11.5 101940 51
2011-11-07 06:15:51 51°14.163 2°55.387 7.7 354 11.5 101940 51
2011-11-07 06:15:58 51°14.179 2°55.373 7.3 1 11.5 101940 51
2011-11-07 06:16:02 51°14.189 2°55.365 6.5 4 11.5 101940 51
2011-11-07 06:16:08 51°14.203 2°55.353 8.2 358 11.5 101940 52
2011-11-07 06:16:14 51°14.218 2°55.341 8 357 11.5 101940 52
2011-11-07 06:16:19 51°14.229 2°55.331 7.4 358 11.4 101930 52
2011-11-07 06:16:24 51°14.241 2°55.321 8 359 11.4 101930 52
2011-11-07 06:16:29 51°14.253 2°55.311 9.6 359 11.4 101950 52
2011-11-07 06:16:34 51°14.264 2°55.3 10 1 11.4 101950 52
2011-11-07 06:16:39 51°14.275 2°55.288 9.1 6 11.4 101940 50
2011-11-07 06:16:44 51°14.286 2°55.276 8.8 4 11.4 101940 50
2011-11-07 06:16:49 51°14.297 2°55.265 9.5 7 11.5 101920 52
2011-11-07 06:16:54 51°14.308 2°55.252 10.6 8 11.5 101920 52
2011-11-07 06:16:59 51°14.319 2°55.239 8.2 6 11.5 101920 51
2011-11-07 06:17:04 51°14.33 2°55.227 8.3 6 11.5 101920 51
2011-11-07 06:17:09 51°14.341 2°55.214 9.5 6 11.5 101930 52
2011-11-07 06:17:14 51°14.352 2°55.201 9.5 8 11.5 101930 52
2011-11-07 06:17:19 51°14.362 2°55.188 8.8 8 11.5 101940 52
2011-11-07 06:17:24 51°14.373 2°55.175 6.9 4 11.5 101940 52
2011-11-07 06:17:29 51°14.384 2°55.162 8.8 8 11.5 101920 52
2011-11-07 06:17:34 51°14.394 2°55.151 7.1 5 11.5 101920 52
2011-11-07 06:17:38 51°14.403 2°55.141 8.3 1 11.5 101920 52
2011-11-07 06:17:43 51°14.413 2°55.13 7.5 6 11.5 101920 52
2011-11-07 06:17:48 51°14.423 2°55.118 9.3 8 11.5 101930 52
2011-11-07 06:17:53 51°14.433 2°55.106 8.4 10 11.5 101930 52
2011-11-07 06:17:58 51°14.443 2°55.093 8 6 11.5 101920 51
2011-11-07 06:18:03 51°14.454 2°55.081 10.8 6 11.5 101920 51
2011-11-07 06:18:07 51°14.462 2°55.072 9.6 2 11.5 101960 51
2011-11-07 06:18:13 51°14.475 2°55.057 13.4 -999 11.5 101960 51
2011-11-07 06:18:18 51°14.485 2°55.045 10.6 6 11.5 101920 52
2011-11-07 06:18:24 51°14.498 2°55.031 8 4 11.5 101920 52
2011-11-07 06:18:28 51°14.506 2°55.02 6.7 3 11.5 101920 51
2011-11-07 06:18:33 51°14.516 2°55.006 7.3 6 11.5 101920 51
2011-11-07 06:18:38 51°14.525 2°54.99 10.1 6 11.5 101940 52
2011-11-07 06:18:43 51°14.533 2°54.972 8.3 7 11.5 101940 52
2011-11-07 06:18:48 51°14.541 2°54.954 7 6 11.5 101960 52
2011-11-07 06:18:53 51°14.55 2°54.936 8.3 6 11.5 101960 52
2011-11-07 06:18:57 51°14.558 2°54.923 9.2 6 11.5 101940 52
2011-11-07 06:19:02 51°14.568 2°54.906 10.9 358 11.5 101940 52
2011-11-07 06:19:07 51°14.579 2°54.891 8.5 359 11.5 101930 52
2011-11-07 06:19:12 51°14.59 2°54.875 10.9 359 11.5 101930 52
2011-11-07 06:19:17 51°14.601 2°54.86 11.5 1 11.5 101930 51
2011-11-07 06:19:23 51°14.615 2°54.84 9.2 358 11.5 101930 51
2011-11-07 06:19:28 51°14.626 2°54.825 9.7 358 11.5 101920 52
2011-11-07 06:19:33 51°14.638 2°54.812 13.1 358 11.5 101920 52
2011-11-07 06:19:38 51°14.649 2°54.798 11.7 358 11.5 101920 51
2011-11-07 06:19:43 51°14.662 2°54.785 8.7 359 11.5 101920 51
2011-11-07 06:19:48 51°14.674 2°54.771 11.6 -999 11.5 101900 52
2011-11-07 06:19:53 51°14.686 2°54.758 12.3 360 11.5 101900 52
2011-11-07 06:19:57 51°14.696 2°54.746 9.8 -999 11.5 101950 51
2011-11-07 06:20:02 51°14.709 2°54.731 9 1 11.5 101950 51
2011-11-07 06:20:07 51°14.722 2°54.716 8.5 -999 11.5 101900 51
2011-11-07 06:20:12 51°14.734 2°54.7 12.1 1 11.5 101900 51
2011-11-07 06:20:18 51°14.748 2°54.681 8.6 3 11.4 101920 51
2011-11-07 06:20:22 51°14.758 2°54.668 7.7 1 11.4 101920 51
2011-11-07 06:20:27 51°14.771 2°54.653 11.5 358 11.5 101910 52
2011-11-07 06:20:32 51°14.784 2°54.639 8.9 359 11.5 101910 52
2011-11-07 06:20:37 51°14.797 2°54.623 8.8 358 11.5 101930 52
2011-11-07 06:20:42 51°14.809 2°54.609 10.4 360 11.5 101930 52
2011-11-07 06:20:46 51°14.819 2°54.596 11.4 3 11.5 101920 52
2011-11-07 06:20:52 51°14.834 2°54.578 11.4 2 11.5 101920 52
2011-11-07 06:20:56 51°14.844 2°54.565 10 3 11.5 101910 53
2011-11-07 06:21:01 51°14.857 2°54.55 9.9 359 11.5 101910 53
2011-11-07 06:21:06 51°14.87 2°54.536 12.2 355 11.5 101930 53
2011-11-07 06:21:11 51°14.884 2°54.523 10.8 355 11.5 101930 53
2011-11-07 06:21:17 51°14.9 2°54.508 12.6 355 11.5 101910 52
2011-11-07 06:21:22 51°14.914 2°54.495 9.5 354 11.5 101910 52
2011-11-07 06:21:27 51°14.927 2°54.482 11.2 356 11.5 101920 53
2011-11-07 06:21:31 51°14.938 2°54.472 14 357 11.5 101920 53
2011-11-07 06:21:36 51°14.952 2°54.459 13.3 357 11.5 101910 52
2011-11-07 06:21:41 51°14.966 2°54.447 11.9 358 11.5 101910 52
2011-11-07 06:21:46 51°14.979 2°54.434 11.7 358 11.5 101910 52
2011-11-07 06:21:51 51°14.993 2°54.421 11.3 359 11.5 101910 52
2011-11-07 06:21:55 51°15.003 2°54.41 11.3 360 11.5 101920 51
2011-11-07 06:22:00 51°15.017 2°54.396 9.7 3 11.5 101920 51
2011-11-07 06:22:05 51°15.03 2°54.382 11.4 2 11.5 101920 52
2011-11-07 06:22:11 51°15.046 2°54.364 10.1 3 11.5 101920 52
2011-11-07 06:22:16 51°15.059 2°54.349 10.1 4 11.5 101900 52
2011-11-07 06:22:20 51°15.069 2°54.338 9 359 11.5 101900 52
2011-11-07 06:22:25 51°15.082 2°54.323 9.9 2 11.5 101910 52
2011-11-07 06:22:30 51°15.095 2°54.307 13.1 1 11.5 101910 52
2011-11-07 06:22:36 51°15.109 2°54.287 10 4 11.5 101920 52
2011-11-07 06:22:40 51°15.119 2°54.274 9 359 11.5 101920 52
2011-11-07 06:22:45 51°15.131 2°54.258 8.7 1 11.5 101920 52
2011-11-07 06:22:51 51°15.145 2°54.239 8.8 4 11.5 101920 52
2011-11-07 06:22:56 51°15.157 2°54.221 10 359 11.5 101930 53
2011-11-07 06:23:01 51°15.168 2°54.205 10.7 1 11.5 101930 53
2011-11-07 06:23:05 51°15.178 2°54.192 11.7 2 11.5 101910 53
2011-11-07 06:23:11 51°15.192 2°54.173 9.6 2 11.5 101910 53
2011-11-07 06:23:17 51°15.207 2°54.153 9 3 11.5 101930 52
2011-11-07 06:23:22 51°15.219 2°54.136 9.5 2 11.5 101930 52
2011-11-07 06:23:26 51°15.229 2°54.122 9.9 -999 11.5 101920 52
2011-11-07 06:23:31 51°15.241 2°54.105 10.1 358 11.5 101920 52
2011-11-07 06:23:36 51°15.254 2°54.088 9.8 356 11.5 101910 52
2011-11-07 06:23:41 51°15.266 2°54.071 12.3 356 11.5 101910 52
2011-11-07 06:23:46 51°15.279 2°54.055 12.9 356 11.5 101920 52
2011-11-07 06:23:50 51°15.289 2°54.042 11.2 355 11.5 101920 52
2011-11-07 06:23:55 51°15.302 2°54.027 11.9 356 11.5 101910 52
2011-11-07 06:24:01 51°15.318 2°54.008 10.4 358 11.5 101910 52
2011-11-07 06:24:06 51°15.331 2°53.993 11.8 356 11.5 101910 52
2011-11-07 06:24:10 51°15.342 2°53.981 10.4 359 11.5 101910 52
2011-11-07 06:24:15 51°15.355 2°53.966 9.6 358 11.5 101920 53
2011-11-07 06:24:21 51°15.37 2°53.949 9.6 357 11.5 101920 53
2011-11-07 06:24:26 51°15.384 2°53.934 10 357 11.4 101930 52
2011-11-07 06:24:31 51°15.397 2°53.919 12.5 359 11.4 101930 52
2011-11-07 06:24:36 51°15.41 2°53.903 11.4 357 11.4 101910 51
2011-11-07 06:24:41 51°15.423 2°53.887 13.4 -999 11.4 101910 51
2011-11-07 06:24:46 51°15.436 2°53.871 13.4 3 11.4 101920 53
2011-11-07 06:24:51 51°15.449 2°53.856 12.3 2 11.4 101920 53
2011-11-07 06:24:55 51°15.46 2°53.843 8.9 7 11.4 101920 52
2011-11-07 06:25:00 51°15.473 2°53.827 9.3 3 11.4 101920 52
2011-11-07 06:25:06 51°15.488 2°53.808 10.7 4 11.4 101920 52
2011-11-07 06:25:11 51°15.501 2°53.791 8.2 6 11.4 101920 52
2011-11-07 06:25:15 51°15.51 2°53.778 8.4 5 11.4 101910 52
2011-11-07 06:25:20 51°15.523 2°53.761 11.2 -999 11.4 101910 52
2011-11-07 06:25:25 51°15.535 2°53.744 9.5 4 11.4 101930 52
2011-11-07 06:25:31 51°15.55 2°53.723 10.6 2 11.4 101930 52
2011-11-07 06:25:35 51°15.559 2°53.71 9.7 359 11.4 101930 53
2011-11-07 06:25:42 51°15.573 2°53.687 9.7 4 11.4 101930 53
2011-11-07 06:25:47 51°15.585 2°53.67 9.1 2 11.4 101920 53
2011-11-07 06:25:52 51°15.595 2°53.653 9.5 3 11.4 101920 53
2011-11-07 06:25:57 51°15.606 2°53.636 10 1 11.4 101920 53
2011-11-07 06:26:02 51°15.617 2°53.619 10.7 358 11.4 101920 53
2011-11-07 06:26:07 51°15.629 2°53.604 11.2 356 11.5 101910 53
2011-11-07 06:26:12 51°15.641 2°53.589 8.7 356 11.5 101910 53
2011-11-07 06:26:16 51°15.65 2°53.577 9.2 356 11.5 101930 53
2011-11-07 06:26:21 51°15.662 2°53.562 11.8 357 11.5 101930 53
2011-11-07 06:26:26 51°15.675 2°53.548 12.6 353 11.5 101950 52
2011-11-07 06:26:31 51°15.688 2°53.536 11.3 352 11.5 101950 52
2011-11-07 06:26:36 51°15.702 2°53.525 12 351 11.5 101910 52
2011-11-07 06:26:41 51°15.716 2°53.513 10.5 352 11.5 101910 52
2011-11-07 06:26:45 51°15.727 2°53.506 11.6 352 11.5 101930 53
2011-11-07 06:26:51 51°15.744 2°53.494 11.1 351 11.5 101930 53
2011-11-07 06:26:56 51°15.758 2°53.486 14.6 351 11.5 101910 53
2011-11-07 06:27:01 51°15.772 2°53.477 11.3 351 11.5 101910 53
2011-11-07 06:27:06 51°15.786 2°53.469 9.9 351 11.5 101920 53
2011-11-07 06:27:12 51°15.803 2°53.459 12.9 354 11.5 101920 53
2011-11-07 06:27:16 51°15.814 2°53.453 13.7 353 11.5 101940 52
2011-11-07 06:27:21 51°15.827 2°53.445 11.9 352 11.5 101940 52
2011-11-07 06:27:26 51°15.841 2°53.437 5.8 353 11.5 101910 52
2011-11-07 06:27:31 51°15.855 2°53.428 10.9 351 11.5 101910 52
2011-11-07 06:27:36 51°15.869 2°53.418 11.1 352 11.5 101940 53
2011-11-07 06:27:41 51°15.882 2°53.408 6 354 11.5 101940 53
2011-11-07 06:27:45 51°15.893 2°53.4 12.1 354 11.5 101910 52
2011-11-07 06:27:51 51°15.91 2°53.388 14.1 354 11.5 101910 52
2011-11-07 06:27:56 51°15.924 2°53.378 12.2 355 11.5 101920 53
2011-11-07 06:28:01 51°15.938 2°53.366 14.5 354 11.5 101920 53
2011-11-07 06:28:05 51°15.95 2°53.358 12.1 352 11.5 101910 53
2011-11-07 06:28:11 51°15.966 2°53.346 11.6 354 11.5 101910 53
2011-11-07 06:28:16 51°15.979 2°53.335 10.6 350 11.5 101920 53
2011-11-07 06:28:21 51°15.993 2°53.325 12.8 353 11.5 101920 53
2011-11-07 06:28:25 51°16.004 2°53.315 13.7 353 11.5 101930 53
2011-11-07 06:28:31 51°16.021 2°53.302 11.4 352 11.5 101930 53
2011-11-07 06:28:36 51°16.035 2°53.291 6.6 351 11.5 101910 52
2011-11-07 06:28:41 51°16.049 2°53.28 16.8 351 11.5 101910 52
2011-11-07 06:28:45 51°16.06 2°53.271 14.7 350 11.5 101930 53
2011-11-07 06:28:51 51°16.076 2°53.258 13.7 349 11.5 101930 53
2011-11-07 06:28:56 51°16.09 2°53.246 13.6 349 11.5 101930 52
2011-11-07 06:29:01 51°16.103 2°53.235 6.2 352 11.5 101930 52
2011-11-07 06:29:05 51°16.114 2°53.226 14.3 350 11.5 101920 53
2011-11-07 06:29:11 51°16.131 2°53.213 16.6 350 11.5 101920 53
2011-11-07 06:29:15 51°16.141 2°53.205 12.9 349 11.5 101940 52
2011-11-07 06:29:21 51°16.157 2°53.194 6.2 348 11.5 101940 52
2011-11-07 06:29:26 51°16.17 2°53.184 6.8 349 11.4 101910 53
2011-11-07 06:29:31 51°16.183 2°53.174 12.6 349 11.4 101910 53
2011-11-07 06:29:36 51°16.196 2°53.164 6.8 349 11.4 101910 52
2011-11-07 06:29:41 51°16.209 2°53.154 8.1 349 11.4 101910 52
2011-11-07 06:29:45 51°16.22 2°53.147 14 350 11.4 101890 52
2011-11-07 06:29:51 51°16.237 2°53.135 7.2 350 11.4 101890 52
2011-11-07 06:29:56 51°16.251 2°53.125 12.6 352 11.4 101930 50
2011-11-07 06:30:01 51°16.265 2°53.115 6.4 352 11.4 101930 50
2011-11-07 06:30:05 51°16.276 2°53.107 7.2 351 11.4 101930 52
2011-11-07 06:30:10 51°16.29 2°53.096 10.4 351 11.4 101930 52
2011-11-07 06:30:16 51°16.306 2°53.083 12.8 349 11.4 101920 52
2011-11-07 06:30:21 51°16.32 2°53.072 14.7 351 11.4 101920 52
2011-11-07 06:30:25 51°16.331 2°53.063 7 350 11.4 101910 52
2011-11-07 06:30:30 51°16.345 2°53.052 11.6 351 11.4 101910 52
2011-11-07 06:30:36 51°16.362 2°53.038 6.7 351 11.5 101920 52
2011-11-07 06:30:41 51°16.376 2°53.027 12.7 352 11.5 101920 52
2011-11-07 06:30:45 51°16.387 2°53.017 13.9 350 11.5 101920 51
2011-11-07 06:30:49 51°16.398 2°53.007 13.7 352 11.5 101920 51
2011-11-07 06:30:55 51°16.415 2°52.992 15.8 355 11.5 101920 52
2011-11-07 06:31:01 51°16.43 2°52.977 7.7 352 11.5 101920 52
2011-11-07 06:31:05 51°16.441 2°52.967 14.4 354 11.5 101920 52
2011-11-07 06:31:11 51°16.457 2°52.952 12.7 353 11.5 101920 52
2011-11-07 06:31:15 51°16.468 2°52.942 7 355 11.5 101930 52
2011-11-07 06:31:21 51°16.484 2°52.926 6.6 358 11.5 101930 52
2011-11-07 06:31:25 51°16.495 2°52.916 10.2 354 11.5 101910 51
2011-11-07 06:31:31 51°16.512 2°52.901 14.3 356 11.5 101910 51
2011-11-07 06:31:36 51°16.525 2°52.888 6.6 355 11.5 101910 52
2011-11-07 06:31:41 51°16.538 2°52.877 13.1 354 11.5 101910 52
2011-11-07 06:31:45 51°16.549 2°52.868 13.1 354 11.5 101910 51
2011-11-07 06:31:51 51°16.566 2°52.853 12.2 353 11.5 101910 51
2011-11-07 06:31:56 51°16.579 2°52.84 11.6 353 11.5 101930 52
2011-11-07 06:32:01 51°16.593 2°52.829 13.5 356 11.5 101930 52
2011-11-07 06:32:05 51°16.604 2°52.819 10.8 357 11.5 101920 51
2011-11-07 06:32:11 51°16.621 2°52.806 12.2 356 11.5 101920 51
2011-11-07 06:32:16 51°16.634 2°52.794 11.5 354 11.5 101920 51
2011-11-07 06:32:21 51°16.647 2°52.782 5.8 354 11.5 101920 51
2011-11-07 06:32:25 51°16.658 2°52.773 13.4 354 11.5 101930 51
2011-11-07 06:32:30 51°16.672 2°52.762 11.9 353 11.5 101930 51
2011-11-07 06:32:36 51°16.688 2°52.749 6.3 354 11.5 101950 50
2011-11-07 06:32:41 51°16.701 2°52.739 11.5 357 11.5 101950 50
2011-11-07 06:32:45 51°16.711 2°52.73 10.9 357 11.5 101920 52
2011-11-07 06:32:51 51°16.725 2°52.719 13.5 355 11.5 101920 52
2011-11-07 06:32:57 51°16.74 2°52.707 10.7 355 11.5 101910 51
2011-11-07 06:33:01 51°16.75 2°52.698 11.1 354 11.5 101910 51
2011-11-07 06:33:06 51°16.763 2°52.688 10.7 352 11.5 101920 52
2011-11-07 06:33:11 51°16.776 2°52.677 6.1 351 11.5 101920 52
2011-11-07 06:33:16 51°16.789 2°52.666 12.9 356 11.5 101930 52
2011-11-07 06:33:21 51°16.802 2°52.655 10.7 355 11.5 101930 52
2011-11-07 06:33:25 51°16.812 2°52.646 10.9 354 11.4 101950 51
2011-11-07 06:33:31 51°16.829 2°52.631 10.8 354 11.4 101950 51
2011-11-07 06:33:35 51°16.84 2°52.621 9.7 353 11.5 101930 52
2011-11-07 06:33:41 51°16.856 2°52.607 10.7 353 11.5 101930 52
2011-11-07 06:33:45 51°16.866 2°52.598 5.2 354 11.5 101920 52
2011-11-07 06:33:51 51°16.882 2°52.585 14.1 354 11.5 101920 52
2011-11-07 06:33:56 51°16.895 2°52.574 5.9 353 11.5 101920 52
2011-11-07 06:34:01 51°16.908 2°52.563 11.6 354 11.5 101920 52
2011-11-07 06:34:05 51°16.919 2°52.554 11 353 11.5 101930 52
2011-11-07 06:34:11 51°16.935 2°52.541 10.5 353 11.5 101930 52
2011-11-07 06:34:16 51°16.948 2°52.531 15.5 353 11.5 101950 52
2011-11-07 06:34:21 51°16.962 2°52.52 11.6 354 11.5 101950 52
2011-11-07 06:34:25 51°16.972 2°52.511 11.1 353 11.5 101920 51
2011-11-07 06:34:31 51°16.989 2°52.497 10.4 356 11.5 101920 51
2011-11-07 06:34:36 51°17.002 2°52.486 11.6 354 11.5 101930 52
2011-11-07 06:34:41 51°17.015 2°52.476 10.8 357 11.5 101930 52
2011-11-07 06:34:45 51°17.026 2°52.469 11.2 353 11.5 101930 52
2011-11-07 06:34:50 51°17.04 2°52.46 5.8 353 11.5 101930 52
2011-11-07 06:34:56 51°17.056 2°52.451 10.7 357 11.5 101910 52
2011-11-07 06:35:01 51°17.069 2°52.443 13.5 356 11.5 101910 52
2011-11-07 06:35:06 51°17.082 2°52.436 6.4 353 11.5 101920 52
2011-11-07 06:35:11 51°17.096 2°52.429 11.4 353 11.5 101920 52
2011-11-07 06:35:16 51°17.109 2°52.422 10.1 354 11.5 101930 51
2011-11-07 06:35:21 51°17.122 2°52.415 11.5 351 11.5 101930 51
2011-11-07 06:35:25 51°17.133 2°52.409 6.8 352 11.5 101950 51
2011-11-07 06:35:31 51°17.149 2°52.402 13.1 352 11.5 101950 51
2011-11-07 06:35:35 51°17.16 2°52.397 16.6 351 11.5 101920 52
2011-11-07 06:35:41 51°17.176 2°52.391 14.4 349 11.5 101920 52
2011-11-07 06:35:45 51°17.188 2°52.387 7 351 11.5 101940 52
2011-11-07 06:35:51 51°17.204 2°52.382 6.7 352 11.5 101940 52
2011-11-07 06:35:56 51°17.219 2°52.377 12.4 349 11.5 101910 52
2011-11-07 06:36:01 51°17.233 2°52.372 15.4 350 11.5 101910 52
2011-11-07 06:36:05 51°17.244 2°52.37 11.6 351 11.5 101930 52
2011-11-07 06:36:11 51°17.261 2°52.366 6.9 347 11.5 101930 52
2011-11-07 06:36:16 51°17.275 2°52.363 13.4 347 11.5 101930 52
2011-11-07 06:36:21 51°17.289 2°52.361 14.9 348 11.5 101930 52
2011-11-07 06:36:25 51°17.3 2°52.359 13.3 347 11.5 101950 52
2011-11-07 06:36:31 51°17.316 2°52.357 16.7 347 11.5 101950 52
2011-11-07 06:36:36 51°17.33 2°52.355 14.1 347 11.5 101940 52
2011-11-07 06:36:41 51°17.344 2°52.353 13.8 347 11.5 101940 52
2011-11-07 06:36:45 51°17.355 2°52.353 12.4 348 11.5 101920 51
2011-11-07 06:36:50 51°17.37 2°52.352 15.5 349 11.5 101920 51
2011-11-07 06:36:56 51°17.387 2°52.351 13.1 348 11.5 101940 51
2011-11-07 06:37:01 51°17.401 2°52.35 15.7 349 11.5 101940 51
2011-11-07 06:37:05 51°17.413 2°52.347 13.4 347 11.5 101930 52
2011-11-07 06:37:09 51°17.425 2°52.346 13 351 11.5 101930 52
2011-11-07 06:37:15 51°17.442 2°52.342 7.4 349 11.5 101920 51
2011-11-07 06:37:21 51°17.46 2°52.34 16.5 349 11.5 101920 51
2011-11-07 06:37:25 51°17.472 2°52.337 13.6 349 11.5 101920 51
2011-11-07 06:37:31 51°17.49 2°52.334 12 348 11.5 101920 51
2011-11-07 06:37:35 51°17.502 2°52.332 19.4 348 11.5 101930 52
2011-11-07 06:37:41 51°17.519 2°52.331 11.6 351 11.5 101930 52
2011-11-07 06:37:45 51°17.531 2°52.33 12.9 347 11.5 101920 51
2011-11-07 06:37:51 51°17.548 2°52.329 11.1 348 11.5 101920 51
2011-11-07 06:37:56 51°17.562 2°52.328 10 347 11.5 101930 50
2011-11-07 06:38:01 51°17.576 2°52.326 18.4 345 11.5 101930 50
2011-11-07 06:38:05 51°17.587 2°52.325 11 347 11.5 101920 51
2011-11-07 06:38:10 51°17.601 2°52.324 12.8 281 11.5 101920 51
2011-11-07 06:38:16 51°17.618 2°52.323 15.1 346 11.5 101920 52
2011-11-07 06:38:21 51°17.632 2°52.32 12.6 348 11.5 101920 52
2011-11-07 06:38:25 51°17.643 2°52.318 19.9 347 11.5 101940 52
2011-11-07 06:38:31 51°17.661 2°52.315 6.9 347 11.5 101940 52
2011-11-07 06:38:35 51°17.672 2°52.313 13.1 347 11.5 101950 52
2011-11-07 06:38:41 51°17.69 2°52.311 7.4 346 11.5 101950 52
2011-11-07 06:38:45 51°17.701 2°52.309 7.4 345 11.5 101940 51
2011-11-07 06:38:51 51°17.719 2°52.308 11 346 11.5 101940 51
2011-11-07 06:38:56 51°17.733 2°52.308 12.6 346 11.5 101940 51
2011-11-07 06:39:01 51°17.746 2°52.309 16.1 345 11.5 101940 51
2011-11-07 06:39:05 51°17.757 2°52.31 16.6 343 11.5 101940 52
2011-11-07 06:39:11 51°17.775 2°52.312 7.4 283 11.5 101940 52
2011-11-07 06:39:16 51°17.789 2°52.314 13.9 342 11.5 101930 51
2011-11-07 06:39:21 51°17.802 2°52.317 13.6 343 11.5 101930 51
2011-11-07 06:39:25 51°17.814 2°52.319 12.1 341 11.5 101940 52
2011-11-07 06:39:31 51°17.831 2°52.324 4.4 340 11.5 101940 52
2011-11-07 06:39:36 51°17.844 2°52.328 7 341 11.5 101940 51
2011-11-07 06:39:41 51°17.858 2°52.334 13.1 339 11.5 101940 51
2011-11-07 06:39:45 51°17.869 2°52.339 12.5 341 11.5 101930 51
2011-11-07 06:39:51 51°17.885 2°52.348 15.1 338 11.5 101930 51
2011-11-07 06:39:56 51°17.898 2°52.356 15 338 11.5 101930 52
2011-11-07 06:40:01 51°17.911 2°52.365 7.5 338 11.5 101930 52
2011-11-07 06:40:05 51°17.921 2°52.373 15.7 340 11.5 101930 51
2011-11-07 06:40:10 51°17.934 2°52.382 8.6 282 11.5 101930 51
2011-11-07 06:40:16 51°17.949 2°52.394 15.6 339 11.6 101930 52
2011-11-07 06:40:21 51°17.962 2°52.404 17.6 339 11.6 101930 52
2011-11-07 06:40:25 51°17.972 2°52.412 15.1 339 11.6 101930 51
2011-11-07 06:40:31 51°17.987 2°52.423 7 337 11.6 101930 51
2011-11-07 06:40:35 51°17.997 2°52.431 13.4 335 11.6 101930 51
2011-11-07 06:40:41 51°18.013 2°52.443 8 336 11.6 101930 51
2011-11-07 06:40:45 51°18.023 2°52.449 15.6 336 11.5 101930 51
2011-11-07 06:40:50 51°18.035 2°52.461 14.4 339 11.5 101930 51
2011-11-07 06:40:56 51°18.048 2°52.473 11.8 335 11.5 101930 51
2011-11-07 06:41:01 51°18.06 2°52.483 13.5 336 11.5 101930 51
2011-11-07 06:41:06 51°18.071 2°52.494 14.9 337 11.6 101940 52
2011-11-07 06:41:12 51°18.084 2°52.507 12.9 285 11.6 101940 52
2011-11-07 06:41:17 51°18.094 2°52.519 14 336 11.6 101930 51
2011-11-07 06:41:22 51°18.105 2°52.53 17.6 335 11.6 101930 51
2011-11-07 06:41:26 51°18.113 2°52.54 12.3 332 11.5 101920 52
2011-11-07 06:41:31 51°18.124 2°52.554 12.9 333 11.5 101920 52
2011-11-07 06:41:36 51°18.134 2°52.569 14.9 331 11.5 101930 52
2011-11-07 06:41:41 51°18.143 2°52.585 17 329 11.5 101930 52
2011-11-07 06:41:45 51°18.151 2°52.599 12.9 331 11.6 101930 51
2011-11-07 06:41:50 51°18.16 2°52.616 15.9 331 11.6 101930 51
2011-11-07 06:41:55 51°18.168 2°52.634 14.6 327 11.5 101940 51
2011-11-07 06:42:01 51°18.178 2°52.657 16.5 329 11.5 101940 51
2011-11-07 06:42:05 51°18.184 2°52.673 13.9 328 11.5 101930 51
2011-11-07 06:42:11 51°18.192 2°52.696 14 280 11.5 101930 51
2011-11-07 06:42:15 51°18.197 2°52.713 12.1 329 11.5 101950 51
2011-11-07 06:42:21 51°18.205 2°52.738 14 329 11.5 101950 51
2011-11-07 06:42:25 51°18.21 2°52.755 11.6 331 11.5 101930 51
2011-11-07 06:42:31 51°18.219 2°52.778 13.1 331 11.5 101930 51
2011-11-07 06:42:36 51°18.225 2°52.799 16.3 330 11.5 101910 51
2011-11-07 06:42:41 51°18.232 2°52.819 15 330 11.5 101910 51
2011-11-07 06:42:45 51°18.237 2°52.836 13.7 329 11.5 101940 52
2011-11-07 06:42:51 51°18.245 2°52.861 13.9 329 11.5 101940 52
2011-11-07 06:42:56 51°18.251 2°52.882 14.9 327 11.5 101950 51
2011-11-07 06:43:01 51°18.258 2°52.903 13.1 329 11.5 101950 51
2011-11-07 06:43:05 51°18.263 2°52.919 16.4 329 11.5 101940 51
2011-11-07 06:43:11 51°18.272 2°52.943 14.3 285 11.5 101940 51
2011-11-07 06:43:16 51°18.279 2°52.962 11.6 327 11.4 101940 50
2011-11-07 06:43:21 51°18.287 2°52.981 13.2 329 11.4 101940 50
2011-11-07 06:43:25 51°18.293 2°52.997 10.9 328 11.4 101930 51
2011-11-07 06:43:31 51°18.303 2°53.02 13.9 329 11.4 101930 51
2011-11-07 06:43:36 51°18.311 2°53.039 17 331 11.4 101930 51
2011-11-07 06:43:41 51°18.32 2°53.056 12.9 329 11.4 101930 51
2011-11-07 06:43:45 51°18.326 2°53.072 13 328 11.4 101930 51
2011-11-07 06:43:50 51°18.335 2°53.091 13.3 333 11.4 101930 51
2011-11-07 06:43:56 51°18.344 2°53.114 14.1 332 11.4 101940 51
2011-11-07 06:44:01 51°18.353 2°53.133 11.7 331 11.4 101940 51
2011-11-07 06:44:05 51°18.359 2°53.149 14.9 332 11.4 101950 51
2011-11-07 06:44:11 51°18.369 2°53.173 14.7 282 11.4 101950 51
2011-11-07 06:44:15 51°18.376 2°53.187 13.1 331 11.5 101940 51
2011-11-07 06:44:21 51°18.385 2°53.21 12.2 329 11.5 101940 51
2011-11-07 06:44:25 51°18.392 2°53.225 14 331 11.4 101950 51
2011-11-07 06:44:31 51°18.403 2°53.247 12.4 330 11.4 101950 51
2011-11-07 06:44:36 51°18.411 2°53.266 15.2 326 11.5 101960 52
2011-11-07 06:44:41 51°18.419 2°53.286 15.5 328 11.5 101960 52
2011-11-07 06:44:45 51°18.426 2°53.301 11.8 330 11.5 101940 51
2011-11-07 06:44:50 51°18.434 2°53.319 14.7 330 11.5 101940 51
2011-11-07 06:44:56 51°18.445 2°53.341 20.1 330 11.5 101940 51
2011-11-07 06:45:01 51°18.454 2°53.359 19.2 330 11.5 101940 51
2011-11-07 06:45:05 51°18.461 2°53.374 15.9 330 11.4 101930 51
2011-11-07 06:45:11 51°18.471 2°53.397 14 282 11.4 101930 51
2011-11-07 06:45:15 51°18.477 2°53.412 18.4 330 11.4 101940 51
2011-11-07 06:45:21 51°18.487 2°53.434 15.4 330 11.4 101940 51
2011-11-07 06:45:25 51°18.494 2°53.45 15.5 331 11.4 101940 51
2011-11-07 06:45:31 51°18.504 2°53.471 16.7 333 11.4 101940 51
2011-11-07 06:45:36 51°18.514 2°53.489 15.9 332 11.4 101930 51
2011-11-07 06:45:41 51°18.523 2°53.507 13.4 331 11.4 101930 51
2011-11-07 06:45:45 51°18.529 2°53.522 15.2 330 11.4 101940 52
2011-11-07 06:45:51 51°18.54 2°53.542 12.8 329 11.4 101940 52
2011-11-07 06:45:56 51°18.548 2°53.559 12.1 334 11.4 101950 50
2011-11-07 06:46:01 51°18.557 2°53.577 11.6 331 11.4 101950 50
2011-11-07 06:46:05 51°18.564 2°53.59 15.8 333 11.4 101940 51
2011-11-07 06:46:10 51°18.573 2°53.608 12.3 283 11.4 101940 51
2011-11-07 06:46:16 51°18.584 2°53.629 13.2 332 11.4 101940 51
2011-11-07 06:46:21 51°18.592 2°53.647 17.6 334 11.4 101940 51
2011-11-07 06:46:25 51°18.6 2°53.66 14.6 335 11.5 101950 51
2011-11-07 06:46:31 51°18.612 2°53.681 12.3 334 11.5 101950 51
2011-11-07 06:46:35 51°18.619 2°53.696 16 334 11.5 101940 52
2011-11-07 06:46:41 51°18.63 2°53.717 16 334 11.5 101940 52
2011-11-07 06:46:45 51°18.637 2°53.732 14.7 333 11.5 101950 51
2011-11-07 06:46:51 51°18.648 2°53.754 15.6 333 11.5 101950 51
2011-11-07 06:46:56 51°18.657 2°53.772 14.3 333 11.5 101940 51
2011-11-07 06:47:01 51°18.666 2°53.791 13.2 333 11.5 101940 51
2011-11-07 06:47:05 51°18.672 2°53.806 14.5 332 11.5 101960 52
2011-11-07 06:47:10 51°18.681 2°53.824 14.8 279 11.5 101960 52
2011-11-07 06:47:16 51°18.692 2°53.846 13.4 332 11.4 101950 51
2011-11-07 06:47:21 51°18.701 2°53.864 13.1 331 11.4 101950 51
2011-11-07 06:47:25 51°18.708 2°53.879 13.6 334 11.4 101950 51
2011-11-07 06:47:31 51°18.719 2°53.901 14.9 331 11.4 101950 51
2011-11-07 06:47:35 51°18.726 2°53.916 13 329 11.4 101960 51
2011-11-07 06:47:41 51°18.737 2°53.938 12.9 330 11.4 101960 51
2011-11-07 06:47:45 51°18.744 2°53.953 17.6 329 11.4 101950 51
2011-11-07 06:47:51 51°18.754 2°53.976 13.5 330 11.4 101950 51
2011-11-07 06:47:56 51°18.763 2°53.995 13.3 329 11.5 101950 52
2011-11-07 06:48:01 51°18.771 2°54.014 14.7 328 11.5 101950 52
2011-11-07 06:48:05 51°18.778 2°54.029 15.4 331 11.5 101960 52
2011-11-07 06:48:11 51°18.789 2°54.052 12.1 330 11.5 101960 52
2011-11-07 06:48:16 51°18.797 2°54.071 18.5 329 11.5 101950 52
2011-11-07 06:48:21 51°18.805 2°54.09 15.5 329 11.5 101950 52
2011-11-07 06:48:25 51°18.812 2°54.105 13.8 329 11.5 101950 51
2011-11-07 06:48:31 51°18.823 2°54.127 15.8 330 11.5 101950 51
2011-11-07 06:48:35 51°18.83 2°54.142 15.7 332 11.4 101960 51
2011-11-07 06:48:41 51°18.841 2°54.165 13 331 11.4 101960 51
2011-11-07 06:48:45 51°18.847 2°54.181 13.8 329 11.4 101950 51
2011-11-07 06:48:50 51°18.856 2°54.199 15.1 329 11.4 101950 51
2011-11-07 06:48:55 51°18.865 2°54.218 16.1 329 11.4 101960 51
2011-11-07 06:49:01 51°18.876 2°54.24 14.4 331 11.4 101960 51
2011-11-07 06:49:05 51°18.883 2°54.255 12.6 329 11.4 101950 50
2011-11-07 06:49:10 51°18.892 2°54.273 7.3 285 11.4 101950 50
2011-11-07 06:49:16 51°18.903 2°54.295 11.3 332 11.5 101950 52
2011-11-07 06:49:21 51°18.912 2°54.313 15 329 11.5 101950 52
2011-11-07 06:49:25 51°18.919 2°54.328 12.1 333 11.5 101950 51
2011-11-07 06:49:31 51°18.93 2°54.349 11.8 329 11.5 101950 51
2011-11-07 06:49:35 51°18.937 2°54.363 13.9 330 11.5 101940 51
2011-11-07 06:49:41 51°18.948 2°54.385 11 331 11.5 101940 51
2011-11-07 06:49:45 51°18.956 2°54.399 13.8 328 11.5 101960 52
2011-11-07 06:49:51 51°18.967 2°54.421 13.6 328 11.5 101960 52
2011-11-07 06:49:55 51°18.975 2°54.435 15.8 331 11.5 101950 52
2011-11-07 06:50:01 51°18.986 2°54.456 13 329 11.5 101950 52
2011-11-07 06:50:05 51°18.993 2°54.471 11.8 331 11.5 101960 51
2011-11-07 06:50:11 51°19.004 2°54.493 13.1 331 11.5 101960 51
2011-11-07 06:50:16 51°19.014 2°54.51 15.3 328 11.6 101950 52
2011-11-07 06:50:21 51°19.023 2°54.529 14.8 331 11.6 101950 52
2011-11-07 06:50:25 51°19.031 2°54.542 13 330 11.6 101940 52
2011-11-07 06:50:30 51°19.04 2°54.561 15.2 331 11.6 101940 52
2011-11-07 06:50:36 51°19.051 2°54.583 14.4 330 11.5 101960 51
2011-11-07 06:50:41 51°19.06 2°54.601 16.6 329 11.5 101960 51
2011-11-07 06:50:45 51°19.067 2°54.615 16.8 331 11.5 101950 51
2011-11-07 06:50:51 51°19.078 2°54.637 14.3 330 11.5 101950 51
2011-11-07 06:50:55 51°19.085 2°54.652 15.2 331 11.5 101950 51
2011-11-07 06:51:01 51°19.096 2°54.674 13.2 331 11.5 101950 51
2011-11-07 06:51:05 51°19.102 2°54.688 16.1 331 11.5 101960 52
2011-11-07 06:51:10 51°19.111 2°54.707 14.2 280 11.5 101960 52
2011-11-07 06:51:16 51°19.122 2°54.729 17.4 330 11.5 101960 51
2011-11-07 06:51:21 51°19.13 2°54.746 14 330 11.5 101960 51
2011-11-07 06:51:25 51°19.137 2°54.761 14.7 329 11.5 101960 51
2011-11-07 06:51:31 51°19.146 2°54.782 18.4 331 11.5 101960 51
2011-11-07 06:51:36 51°19.155 2°54.8 17.4 330 11.5 101940 51
2011-11-07 06:51:41 51°19.163 2°54.818 14.2 331 11.5 101940 51
2011-11-07 06:51:45 51°19.17 2°54.832 19.1 329 11.5 101950 50
2011-11-07 06:51:51 51°19.18 2°54.855 15.3 331 11.5 101950 50
2011-11-07 06:51:56 51°19.189 2°54.872 15.6 332 11.4 101950 51
2011-11-07 06:52:01 51°19.197 2°54.89 11.2 332 11.4 101950 51
2011-11-07 06:52:05 51°19.204 2°54.904 14.7 332 11.4 101940 51
2011-11-07 06:52:11 51°19.214 2°54.926 13 333 11.4 101940 51
2011-11-07 06:52:16 51°19.222 2°54.943 13.9 331 11.4 101950 51
2011-11-07 06:52:21 51°19.231 2°54.961 15.5 330 11.4 101950 51
2011-11-07 06:52:25 51°19.238 2°54.975 16 331 11.4 101960 51
2011-11-07 06:52:30 51°19.246 2°54.993 20.4 332 11.4 101960 51
2011-11-07 06:52:36 51°19.257 2°55.015 17.3 331 11.4 101960 51
2011-11-07 06:52:41 51°19.266 2°55.032 16.2 332 11.4 101960 51
2011-11-07 06:52:45 51°19.273 2°55.047 19.2 334 11.4 101940 52
2011-11-07 06:52:50 51°19.282 2°55.065 16.6 334 11.4 101940 52
2011-11-07 06:52:56 51°19.292 2°55.088 14.5 334 11.4 101950 52
2011-11-07 06:53:01 51°19.301 2°55.105 10.9 334 11.4 101950 52
2011-11-07 06:53:05 51°19.308 2°55.12 14.4 334 11.4 101940 51
2011-11-07 06:53:11 51°19.319 2°55.142 16.3 285 11.4 101940 51
2011-11-07 06:53:15 51°19.326 2°55.156 16.1 332 11.4 101950 51
2011-11-07 06:53:21 51°19.337 2°55.178 15.5 331 11.4 101950 51
2011-11-07 06:53:25 51°19.344 2°55.192 7.4 332 11.4 101950 51
2011-11-07 06:53:31 51°19.355 2°55.213 16.6 332 11.4 101950 51
2011-11-07 06:53:36 51°19.364 2°55.231 16.6 331 11.4 101950 52
2011-11-07 06:53:41 51°19.372 2°55.249 13.4 332 11.4 101950 52
2011-11-07 06:53:45 51°19.379 2°55.264 10.9 331 11.4 101960 52
2011-11-07 06:53:50 51°19.387 2°55.283 15.9 331 11.4 101960 52
2011-11-07 06:53:56 51°19.397 2°55.306 15.4 330 11.4 101950 52
2011-11-07 06:54:01 51°19.406 2°55.325 13.3 328 11.4 101950 52
2011-11-07 06:54:05 51°19.412 2°55.34 16.9 327 11.4 101950 51
2011-11-07 06:54:11 51°19.422 2°55.364 14.4 328 11.4 101950 51
2011-11-07 06:54:15 51°19.428 2°55.379 15.1 326 11.4 101960 52
2011-11-07 06:54:21 51°19.437 2°55.404 16.9 326 11.4 101960 52
2011-11-07 06:54:25 51°19.442 2°55.42 14.2 327 11.4 101960 50
2011-11-07 06:54:31 51°19.451 2°55.445 14.3 326 11.4 101960 50
2011-11-07 06:54:36 51°19.459 2°55.465 11.8 324 11.4 101950 52
2011-11-07 06:54:41 51°19.466 2°55.486 15.2 326 11.4 101950 52
2011-11-07 06:54:45 51°19.472 2°55.501 14.2 325 11.4 101940 51
2011-11-07 06:54:51 51°19.481 2°55.525 13 328 11.4 101940 51
2011-11-07 06:54:56 51°19.489 2°55.544 11.5 330 11.4 101930 51
2011-11-07 06:55:01 51°19.497 2°55.564 13.3 330 11.4 101930 51
2011-11-07 06:55:05 51°19.504 2°55.579 16.3 329 11.4 101940 52
2011-11-07 06:55:10 51°19.512 2°55.599 14.5 281 11.4 101940 52
2011-11-07 06:55:16 51°19.521 2°55.623 13.6 329 11.4 101950 51
2011-11-07 06:55:21 51°19.529 2°55.643 17.3 333 11.4 101950 51
2011-11-07 06:55:25 51°19.536 2°55.659 14 329 11.4 101960 52
2011-11-07 06:55:31 51°19.544 2°55.683 17.6 331 11.4 101960 52
2011-11-07 06:55:36 51°19.553 2°55.702 17.6 330 11.5 101950 52
2011-11-07 06:55:41 51°19.561 2°55.722 15.6 332 11.5 101950 52
2011-11-07 06:55:45 51°19.567 2°55.738 19.3 329 11.5 101950 52
2011-11-07 06:55:51 51°19.577 2°55.762 14.5 329 11.5 101950 52
2011-11-07 06:55:56 51°19.585 2°55.782 16.4 328 11.5 101950 52
2011-11-07 06:56:01 51°19.592 2°55.802 15.5 330 11.5 101950 52
2011-11-07 06:56:05 51°19.598 2°55.819 11.5 329 11.4 101940 51
2011-11-07 06:56:10 51°19.606 2°55.838 12.6 331 11.4 101940 51
2011-11-07 06:56:16 51°19.616 2°55.862 14 329 11.4 101960 51
2011-11-07 06:56:21 51°19.624 2°55.882 15.7 332 11.4 101960 51
2011-11-07 06:56:25 51°19.63 2°55.899 17.4 332 11.4 101930 52
2011-11-07 06:56:31 51°19.639 2°55.923 14.8 328 11.4 101930 52
2011-11-07 06:56:35 51°19.645 2°55.939 14.8 332 11.4 101950 52
2011-11-07 06:56:41 51°19.655 2°55.962 14.5 330 11.4 101950 52
2011-11-07 06:56:45 51°19.661 2°55.979 11.7 330 11.4 101960 52
2011-11-07 06:56:51 51°19.671 2°56.001 11.8 332 11.4 101960 52
2011-11-07 06:56:56 51°19.679 2°56.02 15.6 333 11.4 101970 51
2011-11-07 06:57:01 51°19.687 2°56.039 14.9 333 11.4 101970 51
2011-11-07 06:57:05 51°19.694 2°56.054 13.8 331 11.4 101940 50
2011-11-07 06:57:11 51°19.704 2°56.078 14.6 284 11.4 101940 50
2011-11-07 06:57:16 51°19.712 2°56.096 14.2 332 11.4 101940 51
2011-11-07 06:57:21 51°19.721 2°56.115 13.8 331 11.4 101940 51
2011-11-07 06:57:25 51°19.727 2°56.131 13.7 332 11.4 101950 51
2011-11-07 06:57:31 51°19.737 2°56.154 14 332 11.4 101950 51
2011-11-07 06:57:35 51°19.744 2°56.169 14.1 330 11.4 101950 51
2011-11-07 06:57:41 51°19.754 2°56.192 15.2 330 11.4 101950 51
2011-11-07 06:57:45 51°19.76 2°56.208 12.1 329 11.4 101950 51
2011-11-07 06:57:51 51°19.77 2°56.231 15.2 331 11.4 101950 51
2011-11-07 06:57:56 51°19.778 2°56.25 13.9 331 11.4 101940 51
2011-11-07 06:58:01 51°19.787 2°56.27 13.8 332 11.4 101940 51
2011-11-07 06:58:05 51°19.792 2°56.286 13.1 330 11.4 101960 51
2011-11-07 06:58:10 51°19.801 2°56.306 14.1 331 11.4 101960 51
2011-11-07 06:58:16 51°19.81 2°56.329 10.9 330 11.4 101950 52
2011-11-07 06:58:21 51°19.818 2°56.35 12.2 331 11.4 101950 52
2011-11-07 06:58:25 51°19.825 2°56.365 14.3 330 11.4 101960 52
2011-11-07 06:58:31 51°19.834 2°56.389 10.7 329 11.4 101960 52
2011-11-07 06:58:35 51°19.839 2°56.405 11.9 331 11.4 101940 52
2011-11-07 06:58:41 51°19.849 2°56.429 9.8 329 11.4 101940 52
2011-11-07 06:58:45 51°19.856 2°56.444 11.7 331 11.3 101940 52
2011-11-07 06:58:50 51°19.863 2°56.464 12 329 11.3 101940 52
2011-11-07 06:58:55 51°19.872 2°56.483 10.9 332 11.3 101960 51
2011-11-07 06:59:01 51°19.881 2°56.507 14.1 330 11.3 101960 51
2011-11-07 06:59:05 51°19.887 2°56.523 12.4 331 11.3 101960 52
2011-11-07 06:59:11 51°19.897 2°56.546 14 329 11.3 101960 52
2011-11-07 06:59:16 51°19.905 2°56.565 12.5 330 11.3 101950 52
2011-11-07 06:59:21 51°19.913 2°56.585 13.9 329 11.3 101950 52
2011-11-07 06:59:25 51°19.919 2°56.6 11.3 332 11.3 101960 51
2011-11-07 06:59:31 51°19.929 2°56.623 13.6 331 11.3 101960 51
2011-11-07 06:59:35 51°19.935 2°56.639 12.4 331 11.3 101950 52
2011-11-07 06:59:41 51°19.946 2°56.662 10.7 331 11.3 101950 52
2011-11-07 06:59:45 51°19.951 2°56.678 15.1 330 11.3 101960 50
2011-11-07 06:59:51 51°19.961 2°56.702 13 330 11.3 101960 50
2011-11-07 06:59:56 51°19.969 2°56.721 13.9 328 11.4 101970 52
2011-11-07 07:00:01 51°19.977 2°56.741 14.1 329 11.4 101970 52
2011-11-07 07:00:05 51°19.983 2°56.757 10.7 330 11.4 101960 52
2011-11-07 07:00:10 51°19.991 2°56.777 18.5 328 11.4 101960 52
2011-11-07 07:00:16 51°20 2°56.801 12.7 326 11.4 101950 51
2011-11-07 07:00:21 51°20.008 2°56.821 15.4 330 11.4 101950 51
2011-11-07 07:00:25 51°20.015 2°56.836 15.3 330 11.3 101940 51
2011-11-07 07:00:30 51°20.023 2°56.856 13.2 330 11.3 101940 51
2011-11-07 07:00:36 51°20.034 2°56.88 13 329 11.4 101960 52
2011-11-07 07:00:41 51°20.042 2°56.9 13.7 329 11.4 101960 52
2011-11-07 07:00:45 51°20.049 2°56.915 14.3 329 11.4 101960 52
2011-11-07 07:00:51 51°20.059 2°56.939 13.9 330 11.4 101960 52
2011-11-07 07:00:55 51°20.065 2°56.955 11.8 331 11.4 101960 52
2011-11-07 07:01:01 51°20.075 2°56.98 15.9 326 11.4 101960 52
2011-11-07 07:01:05 51°20.081 2°56.996 14.5 332 11.4 101950 52
2011-11-07 07:01:11 51°20.091 2°57.02 11.9 283 11.4 101950 52
2011-11-07 07:01:16 51°20.099 2°57.04 12.3 332 11.4 101950 51
2011-11-07 07:01:21 51°20.108 2°57.06 15.6 331 11.4 101950 51
2011-11-07 07:01:25 51°20.115 2°57.076 17.4 330 11.4 101960 51
2011-11-07 07:01:30 51°20.124 2°57.096 16 330 11.4 101960 51
2011-11-07 07:01:36 51°20.133 2°57.121 7.2 330 11.4 101960 52
2011-11-07 07:01:41 51°20.142 2°57.141 16.4 329 11.4 101960 52
2011-11-07 07:01:45 51°20.148 2°57.158 14.7 329 11.4 101950 52
2011-11-07 07:01:51 51°20.157 2°57.182 15.3 331 11.4 101950 52
2011-11-07 07:01:56 51°20.166 2°57.202 16.3 330 11.4 101960 50
2011-11-07 07:02:01 51°20.173 2°57.223 12.8 303 11.4 101960 50
2011-11-07 07:02:05 51°20.18 2°57.239 16.4 331 11.4 101960 51
2011-11-07 07:02:10 51°20.188 2°57.258 15 331 11.4 101960 51
2011-11-07 07:02:16 51°20.198 2°57.282 14.1 330 11.4 101960 51
2011-11-07 07:02:21 51°20.206 2°57.302 12.2 330 11.4 101960 51
2011-11-07 07:02:25 51°20.214 2°57.317 12.5 331 11.4 101960 50
2011-11-07 07:02:30 51°20.221 2°57.337 18.1 329 11.4 101960 50
2011-11-07 07:02:36 51°20.231 2°57.361 17.8 332 11.3 101960 51
2011-11-07 07:02:41 51°20.239 2°57.379 13.9 330 11.3 101960 51
2011-11-07 07:02:45 51°20.246 2°57.395 13.1 328 11.4 101950 51
2011-11-07 07:02:49 51°20.252 2°57.411 15 330 11.4 101950 51
2011-11-07 07:02:55 51°20.262 2°57.434 18.3 331 11.4 101960 51
2011-11-07 07:03:01 51°20.272 2°57.457 19.1 330 11.4 101960 51
2011-11-07 07:03:05 51°20.278 2°57.473 11.1 328 11.4 101960 51
2011-11-07 07:03:11 51°20.288 2°57.496 15.8 280 11.4 101960 51
2011-11-07 07:03:15 51°20.294 2°57.512 13.5 328 11.3 101950 51
2011-11-07 07:03:21 51°20.304 2°57.536 17.5 329 11.3 101950 51
2011-11-07 07:03:25 51°20.31 2°57.551 14.6 331 11.3 101960 51
2011-11-07 07:03:31 51°20.319 2°57.575 11.6 333 11.3 101960 51
2011-11-07 07:03:36 51°20.327 2°57.596 12.7 332 11.3 101950 51
2011-11-07 07:03:41 51°20.335 2°57.616 9.8 333 11.3 101950 51
2011-11-07 07:03:45 51°20.341 2°57.632 13.8 332 11.4 101940 51
2011-11-07 07:03:50 51°20.349 2°57.651 13.2 332 11.4 101940 51
2011-11-07 07:03:56 51°20.359 2°57.675 13.1 331 11.4 101960 52
2011-11-07 07:04:01 51°20.366 2°57.695 12.2 331 11.4 101960 52
2011-11-07 07:04:05 51°20.373 2°57.711 12 331 11.4 101960 52
2011-11-07 07:04:11 51°20.383 2°57.735 16.4 329 11.4 101960 52
2011-11-07 07:04:16 51°20.391 2°57.755 12.3 331 11.4 101980 51
2011-11-07 07:04:21 51°20.399 2°57.774 13.3 333 11.4 101980 51
2011-11-07 07:04:25 51°20.405 2°57.791 17.3 329 11.4 101960 52
2011-11-07 07:04:30 51°20.413 2°57.811 7.2 331 11.4 101960 52
2011-11-07 07:04:36 51°20.423 2°57.834 13.6 330 11.4 101960 51
2011-11-07 07:04:41 51°20.43 2°57.854 12.4 326 11.4 101960 51
2011-11-07 07:04:45 51°20.437 2°57.87 10.8 331 11.4 101960 52
2011-11-07 07:04:50 51°20.445 2°57.889 6.8 331 11.4 101960 52
2011-11-07 07:04:56 51°20.454 2°57.914 7.4 331 11.4 101960 51
2011-11-07 07:05:01 51°20.463 2°57.933 13.3 329 11.4 101960 51
2011-11-07 07:05:05 51°20.469 2°57.949 13.1 331 11.4 101960 50
2011-11-07 07:05:11 51°20.479 2°57.972 13.6 329 11.4 101960 50
2011-11-07 07:05:15 51°20.484 2°57.989 15.1 329 11.4 101970 51
2011-11-07 07:05:21 51°20.494 2°58.012 13.7 326 11.4 101970 51
2011-11-07 07:05:25 51°20.5 2°58.028 13.5 326 11.4 101970 51
2011-11-07 07:05:31 51°20.509 2°58.052 17.2 327 11.4 101970 51
2011-11-07 07:05:36 51°20.517 2°58.072 10.7 331 11.4 101960 51
2011-11-07 07:05:41 51°20.526 2°58.092 11.7 329 11.4 101960 51
2011-11-07 07:05:45 51°20.533 2°58.107 14.8 332 11.4 101960 51
2011-11-07 07:05:51 51°20.542 2°58.131 12.4 331 11.4 101960 51
2011-11-07 07:05:56 51°20.551 2°58.151 13.2 332 11.4 101950 51
2011-11-07 07:06:01 51°20.559 2°58.17 13.2 327 11.4 101950 51
2011-11-07 07:06:05 51°20.565 2°58.187 15.1 327 11.4 101970 51
2011-11-07 07:06:10 51°20.573 2°58.207 13 328 11.4 101970 51
2011-11-07 07:06:16 51°20.583 2°58.231 16.8 330 11.4 101960 51
2011-11-07 07:06:21 51°20.591 2°58.251 13.7 329 11.4 101960 51
2011-11-07 07:06:25 51°20.598 2°58.266 12.9 329 11.4 101960 51
2011-11-07 07:06:30 51°20.606 2°58.286 18.7 328 11.4 101960 51
2011-11-07 07:06:36 51°20.616 2°58.31 10.7 327 11.4 101950 51
2011-11-07 07:06:41 51°20.624 2°58.33 6.9 303 11.4 101950 51
2011-11-07 07:06:45 51°20.631 2°58.345 11.8 326 11.4 101970 51
2011-11-07 07:06:50 51°20.639 2°58.366 19.5 305 11.4 101970 51
2011-11-07 07:06:55 51°20.647 2°58.385 11.8 325 11.4 101950 51
2011-11-07 07:07:01 51°20.657 2°58.41 15.4 324 11.4 101950 51
2011-11-07 07:07:05 51°20.664 2°58.425 14.2 325 11.5 101940 51
2011-11-07 07:07:11 51°20.674 2°58.448 14.1 283 11.5 101940 51
2011-11-07 07:07:15 51°20.681 2°58.464 6.2 326 11.4 101950 51
2011-11-07 07:07:21 51°20.691 2°58.488 10.9 327 11.4 101950 51
2011-11-07 07:07:25 51°20.697 2°58.504 16.4 326 11.5 101960 51
2011-11-07 07:07:30 51°20.705 2°58.524 14.3 326 11.5 101960 51
2011-11-07 07:07:35 51°20.713 2°58.544 14.1 328 11.5 101950 51
2011-11-07 07:07:41 51°20.722 2°58.568 12 331 11.5 101950 51
2011-11-07 07:07:45 51°20.729 2°58.584 13.6 326 11.5 101950 50
2011-11-07 07:07:51 51°20.739 2°58.607 14.2 325 11.5 101950 50
2011-11-07 07:07:56 51°20.747 2°58.627 15.9 326 11.5 101960 51
2011-11-07 07:08:01 51°20.755 2°58.647 10 327 11.5 101960 51
2011-11-07 07:08:05 51°20.762 2°58.663 12.3 324 11.5 101950 52
2011-11-07 07:08:11 51°20.771 2°58.687 15.8 324 11.5 101950 52
2011-11-07 07:08:15 51°20.777 2°58.703 13.1 326 11.5 101950 52
2011-11-07 07:08:21 51°20.786 2°58.727 14.8 325 11.5 101950 52
2011-11-07 07:08:25 51°20.793 2°58.743 12.9 326 11.5 101950 51
2011-11-07 07:08:30 51°20.801 2°58.763 13.2 326 11.5 101950 51
2011-11-07 07:08:36 51°20.81 2°58.787 13.4 326 11.5 101940 52
2011-11-07 07:08:41 51°20.817 2°58.807 15.6 325 11.5 101940 52
2011-11-07 07:08:45 51°20.824 2°58.823 7 329 11.5 101950 51
2011-11-07 07:08:50 51°20.832 2°58.843 14.4 329 11.5 101950 51
2011-11-07 07:08:56 51°20.841 2°58.868 10.8 329 11.4 101950 51
2011-11-07 07:09:01 51°20.849 2°58.888 7.6 330 11.4 101950 51
2011-11-07 07:09:05 51°20.855 2°58.904 19.2 329 11.4 101940 51
2011-11-07 07:09:10 51°20.864 2°58.923 18.8 280 11.4 101940 51
2011-11-07 07:09:15 51°20.872 2°58.944 16.1 330 11.4 101950 51
2011-11-07 07:09:21 51°20.881 2°58.967 14.2 329 11.4 101950 51
2011-11-07 07:09:25 51°20.887 2°58.985 15.1 328 11.4 101940 51
2011-11-07 07:09:31 51°20.897 2°59.007 17 328 11.4 101940 51
2011-11-07 07:09:35 51°20.902 2°59.024 15.9 327 11.4 101950 51
2011-11-07 07:09:41 51°20.913 2°59.047 12.3 329 11.4 101950 51
2011-11-07 07:09:45 51°20.919 2°59.063 15.2 330 11.4 101940 51
2011-11-07 07:09:51 51°20.93 2°59.087 13.3 328 11.4 101940 51
2011-11-07 07:09:56 51°20.937 2°59.108 12.8 329 11.4 101950 51
2011-11-07 07:10:01 51°20.946 2°59.127 14.2 328 11.4 101950 51
2011-11-07 07:10:05 51°20.952 2°59.144 13 329 11.4 101950 51
2011-11-07 07:10:11 51°20.963 2°59.167 13.4 328 11.4 101950 51
2011-11-07 07:10:16 51°20.97 2°59.187 14.5 330 11.4 101950 51
2011-11-07 07:10:21 51°20.979 2°59.207 13.8 331 11.4 101950 51
2011-11-07 07:10:25 51°20.985 2°59.223 16.2 330 11.4 101950 49
2011-11-07 07:10:30 51°20.993 2°59.244 17.1 330 11.4 101950 49
2011-11-07 07:10:36 51°21.003 2°59.268 7.4 333 11.4 101960 51
2011-11-07 07:10:41 51°21.011 2°59.288 15.6 329 11.4 101960 51
2011-11-07 07:10:45 51°21.018 2°59.304 15.4 331 11.4 101960 51
2011-11-07 07:10:50 51°21.026 2°59.324 13.5 330 11.4 101960 51
2011-11-07 07:10:56 51°21.036 2°59.348 13.8 329 11.4 101960 52
2011-11-07 07:11:01 51°21.043 2°59.369 13.7 329 11.4 101960 52
2011-11-07 07:11:05 51°21.05 2°59.384 17 330 11.4 101960 51
2011-11-07 07:11:10 51°21.057 2°59.405 14.9 331 11.4 101960 51
2011-11-07 07:11:15 51°21.065 2°59.425 14.2 328 11.4 101960 51
2011-11-07 07:11:21 51°21.075 2°59.449 16.4 330 11.4 101960 51
2011-11-07 07:11:25 51°21.081 2°59.465 15.5 330 11.4 101940 51
2011-11-07 07:11:31 51°21.091 2°59.489 15.5 329 11.4 101940 51
2011-11-07 07:11:35 51°21.098 2°59.505 19.3 329 11.4 101960 51
2011-11-07 07:11:41 51°21.107 2°59.529 5.7 329 11.4 101960 51
2011-11-07 07:11:45 51°21.114 2°59.544 19.6 330 11.4 101950 52
2011-11-07 07:11:50 51°21.121 2°59.565 18.6 328 11.4 101950 52
2011-11-07 07:11:55 51°21.13 2°59.585 15.1 330 11.4 101960 52
2011-11-07 07:12:01 51°21.14 2°59.607 7.6 331 11.4 101960 52
2011-11-07 07:12:05 51°21.147 2°59.624 16 328 11.3 101950 51
2011-11-07 07:12:11 51°21.157 2°59.647 12.9 328 11.3 101950 51
2011-11-07 07:12:16 51°21.165 2°59.667 12.8 328 11.3 101950 52
2011-11-07 07:12:21 51°21.174 2°59.687 15 327 11.3 101950 52
2011-11-07 07:12:25 51°21.181 2°59.702 14.1 329 11.3 101960 50
2011-11-07 07:12:31 51°21.191 2°59.727 13.7 327 11.3 101960 50
2011-11-07 07:12:35 51°21.197 2°59.743 14 326 11.3 101960 51
2011-11-07 07:12:41 51°21.207 2°59.767 14 328 11.3 101960 51
2011-11-07 07:12:45 51°21.214 2°59.782 13.8 326 11.3 101960 51
2011-11-07 07:12:51 51°21.223 2°59.808 16.2 324 11.3 101960 51
2011-11-07 07:12:56 51°21.231 2°59.827 11.4 329 11.3 101940 51
2011-11-07 07:13:01 51°21.24 2°59.847 19.3 305 11.3 101940 51
2011-11-07 07:13:05 51°21.246 2°59.863 17.2 325 11.4 101950 50
2011-11-07 07:13:10 51°21.255 2°59.883 14.7 282 11.4 101950 50
2011-11-07 07:13:16 51°21.264 2°59.907 14.1 325 11.4 101970 51
2011-11-07 07:13:21 51°21.272 2°59.927 16.4 327 11.4 101970 51
2011-11-07 07:13:25 51°21.278 2°59.945 14.9 326 11.4 101960 51
2011-11-07 07:13:30 51°21.287 2°59.964 15.6 325 11.4 101960 51
2011-11-07 07:13:35 51°21.295 2°59.985 14.8 326 11.4 101960 51
2011-11-07 07:13:41 51°21.305 3°0.01 11.8 328 11.4 101960 51
2011-11-07 07:13:45 51°21.312 3°0.026 13.9 328 11.4 101940 51
2011-11-07 07:13:51 51°21.321 3°0.05 13.6 331 11.4 101940 51
2011-11-07 07:13:55 51°21.328 3°0.066 14 328 11.4 101950 51
2011-11-07 07:14:01 51°21.337 3°0.091 12.4 330 11.4 101950 51
2011-11-07 07:14:05 51°21.344 3°0.107 18.5 333 11.4 101960 51
2011-11-07 07:14:11 51°21.355 3°0.131 14.2 330 11.4 101960 51
2011-11-07 07:14:16 51°21.363 3°0.152 16 330 11.4 101970 52
2011-11-07 07:14:21 51°21.371 3°0.172 15.9 330 11.4 101970 52
2011-11-07 07:14:25 51°21.378 3°0.189 12 330 11.4 101960 51
2011-11-07 07:14:31 51°21.388 3°0.213 13.6 330 11.4 101960 51
2011-11-07 07:14:36 51°21.396 3°0.233 14.3 328 11.3 101970 51
2011-11-07 07:14:41 51°21.404 3°0.254 16.1 329 11.3 101970 51
2011-11-07 07:14:45 51°21.41 3°0.271 17.8 331 11.3 101960 51
2011-11-07 07:14:51 51°21.42 3°0.295 12.6 329 11.3 101960 51
2011-11-07 07:14:56 51°21.428 3°0.315 13.3 331 11.3 101960 51
2011-11-07 07:15:01 51°21.437 3°0.334 13.6 331 11.3 101960 51
2011-11-07 07:15:05 51°21.444 3°0.35 15.2 327 11.3 101960 51
2011-11-07 07:15:10 51°21.452 3°0.37 13.5 281 11.3 101960 51
2011-11-07 07:15:16 51°21.462 3°0.394 15.1 328 11.3 101960 51
2011-11-07 07:15:21 51°21.471 3°0.414 14 333 11.3 101960 51
2011-11-07 07:15:25 51°21.478 3°0.43 14.3 327 11.3 101960 51
2011-11-07 07:15:30 51°21.486 3°0.45 14.5 326 11.3 101960 51
2011-11-07 07:15:35 51°21.494 3°0.47 16 325 11.3 101960 52
2011-11-07 07:15:41 51°21.504 3°0.495 16.1 328 11.3 101960 52
2011-11-07 07:15:45 51°21.51 3°0.511 13.9 329 11.3 101960 51
2011-11-07 07:15:49 51°21.517 3°0.528 18.7 329 11.3 101960 51
2011-11-07 07:15:55 51°21.526 3°0.552 7.9 329 11.3 101970 52
2011-11-07 07:16:01 51°21.535 3°0.577 15.8 301 11.3 101970 52
2011-11-07 07:16:05 51°21.541 3°0.594 14.3 328 11.3 101950 51
2011-11-07 07:16:11 51°21.551 3°0.618 7.2 328 11.3 101950 51
2011-11-07 07:16:15 51°21.557 3°0.635 15.4 330 11.3 101940 52
2011-11-07 07:16:21 51°21.566 3°0.66 17.1 330 11.3 101940 52
2011-11-07 07:16:25 51°21.572 3°0.677 13.9 328 11.3 101950 51
2011-11-07 07:16:31 51°21.581 3°0.702 17.7 329 11.3 101950 51
2011-11-07 07:16:36 51°21.589 3°0.723 14.6 329 11.3 101950 51
2011-11-07 07:16:41 51°21.598 3°0.743 18.3 328 11.3 101950 51
2011-11-07 07:16:45 51°21.604 3°0.76 17.1 329 11.3 101960 51
2011-11-07 07:16:51 51°21.614 3°0.784 14.1 331 11.3 101960 51
2011-11-07 07:16:56 51°21.623 3°0.804 14.2 327 11.3 101960 51
2011-11-07 07:17:01 51°21.631 3°0.824 14.7 328 11.3 101960 51
2011-11-07 07:17:05 51°21.637 3°0.841 12.2 329 11.3 101970 51
2011-11-07 07:17:10 51°21.646 3°0.861 18.6 281 11.3 101970 51
2011-11-07 07:17:16 51°21.656 3°0.885 14.2 328 11.3 101960 51
2011-11-07 07:17:21 51°21.665 3°0.904 15.3 324 11.3 101960 51
2011-11-07 07:17:25 51°21.671 3°0.921 13.6 328 11.3 101950 52
2011-11-07 07:17:30 51°21.68 3°0.941 16.3 327 11.3 101950 52
2011-11-07 07:17:36 51°21.689 3°0.965 13.4 328 11.3 101960 52
2011-11-07 07:17:41 51°21.698 3°0.985 16.6 327 11.3 101960 52
2011-11-07 07:17:45 51°21.705 3°1.001 12.9 325 11.3 101950 52
2011-11-07 07:17:50 51°21.713 3°1.021 7.7 303 11.3 101950 52
2011-11-07 07:17:55 51°21.721 3°1.041 8.1 326 11.3 101950 52
2011-11-07 07:18:01 51°21.731 3°1.065 16.9 327 11.3 101950 52
2011-11-07 07:18:05 51°21.738 3°1.08 16.1 330 11.3 101950 52
2011-11-07 07:18:11 51°21.748 3°1.104 14.2 330 11.3 101950 52
2011-11-07 07:18:15 51°21.755 3°1.119 16.2 330 11.3 101950 52
2011-11-07 07:18:21 51°21.765 3°1.143 17.6 331 11.3 101950 52
2011-11-07 07:18:25 51°21.772 3°1.158 15.5 331 11.3 101960 51
2011-11-07 07:18:31 51°21.781 3°1.182 11.3 329 11.3 101960 51
2011-11-07 07:18:36 51°21.79 3°1.201 17.6 328 11.3 101970 52
2011-11-07 07:18:41 51°21.798 3°1.221 12.8 327 11.3 101970 52
2011-11-07 07:18:45 51°21.806 3°1.237 14.6 330 11.3 101970 51
2011-11-07 07:18:51 51°21.815 3°1.261 5.5 329 11.3 101970 51
2011-11-07 07:18:56 51°21.823 3°1.281 17.6 330 11.3 101960 51
2011-11-07 07:19:01 51°21.831 3°1.301 18.5 330 11.3 101960 51
2011-11-07 07:19:05 51°21.838 3°1.317 5.3 330 11.3 101970 51
2011-11-07 07:19:11 51°21.847 3°1.341 14.7 281 11.3 101970 51
2011-11-07 07:19:16 51°21.855 3°1.362 12.3 327 11.3 101970 51
2011-11-07 07:19:21 51°21.863 3°1.383 16.9 329 11.3 101970 51
2011-11-07 07:19:25 51°21.869 3°1.399 14.6 328 11.3 101960 51
2011-11-07 07:19:30 51°21.876 3°1.42 16.7 325 11.3 101960 51
2011-11-07 07:19:36 51°21.886 3°1.444 13.9 329 11.3 101970 51
2011-11-07 07:19:41 51°21.894 3°1.465 16.7 328 11.3 101970 51
2011-11-07 07:19:45 51°21.901 3°1.48 15.9 329 11.3 101960 52
2011-11-07 07:19:50 51°21.909 3°1.501 16.4 330 11.3 101960 52
2011-11-07 07:19:56 51°21.919 3°1.525 15.7 328 11.3 101960 52
2011-11-07 07:20:01 51°21.926 3°1.545 15.1 327 11.3 101960 52
2011-11-07 07:20:05 51°21.934 3°1.561 16.3 329 11.3 101960 52
2011-11-07 07:20:10 51°21.942 3°1.581 16.6 303 11.3 101960 52
2011-11-07 07:20:15 51°21.951 3°1.601 15.6 328 11.3 101950 52
2011-11-07 07:20:21 51°21.961 3°1.624 17.7 329 11.3 101950 52
2011-11-07 07:20:25 51°21.967 3°1.641 12.2 328 11.2 101950 51
2011-11-07 07:20:31 51°21.977 3°1.665 7.5 330 11.2 101950 51
2011-11-07 07:20:35 51°21.984 3°1.68 14.5 327 11.2 101960 51
2011-11-07 07:20:41 51°21.994 3°1.704 11.5 328 11.2 101960 51
2011-11-07 07:20:45 51°22 3°1.72 15.9 328 11.2 101950 51
2011-11-07 07:20:50 51°22.009 3°1.739 15.9 328 11.2 101950 51
2011-11-07 07:20:55 51°22.017 3°1.759 16.2 329 11.2 101960 51
2011-11-07 07:21:01 51°22.028 3°1.783 8 331 11.2 101960 51
2011-11-07 07:21:05 51°22.034 3°1.799 13.5 332 11.2 101950 50
2011-11-07 07:21:11 51°22.045 3°1.822 7.8 283 11.2 101950 50
2011-11-07 07:21:16 51°22.053 3°1.842 4.4 331 11.2 101950 51
2011-11-07 07:21:21 51°22.062 3°1.862 16.4 333 11.2 101950 51
2011-11-07 07:21:25 51°22.068 3°1.878 13.1 332 11.2 101950 51
2011-11-07 07:21:31 51°22.079 3°1.902 14.8 331 11.2 101950 51
2011-11-07 07:21:36 51°22.087 3°1.92 14.6 330 11.2 101970 52
2011-11-07 07:21:41 51°22.095 3°1.941 7.1 329 11.2 101970 52
2011-11-07 07:21:45 51°22.102 3°1.956 14.9 330 11.2 101970 51
2011-11-07 07:21:50 51°22.11 3°1.977 14.9 331 11.2 101970 51
2011-11-07 07:21:56 51°22.12 3°2 12.9 329 11.2 101960 51
2011-11-07 07:22:01 51°22.127 3°2.021 13.6 328 11.2 101960 51
2011-11-07 07:22:05 51°22.134 3°2.036 15.6 329 11.2 101940 51
2011-11-07 07:22:10 51°22.142 3°2.056 18.6 329 11.2 101940 51
2011-11-07 07:22:16 51°22.152 3°2.08 16.6 331 11.2 101960 51
2011-11-07 07:22:21 51°22.16 3°2.1 14.7 330 11.2 101960 51
2011-11-07 07:22:25 51°22.167 3°2.115 13.1 328 11.2 101960 51
2011-11-07 07:22:30 51°22.174 3°2.135 14.2 328 11.2 101960 51
2011-11-07 07:22:35 51°22.182 3°2.156 13.7 329 11.2 101950 51
2011-11-07 07:22:41 51°22.191 3°2.18 17.9 329 11.2 101950 51
2011-11-07 07:22:45 51°22.197 3°2.196 8.5 328 11.2 101960 51
2011-11-07 07:22:51 51°22.207 3°2.219 14.8 328 11.2 101960 51
2011-11-07 07:22:55 51°22.213 3°2.236 19.1 327 11.3 101960 51
2011-11-07 07:23:01 51°22.223 3°2.26 14.2 328 11.3 101960 51
2011-11-07 07:23:05 51°22.229 3°2.276 12.2 326 11.2 101960 52
2011-11-07 07:23:10 51°22.237 3°2.295 14.8 279 11.2 101960 52
2011-11-07 07:23:15 51°22.245 3°2.315 15.4 331 11.2 101950 51
2011-11-07 07:23:21 51°22.255 3°2.339 14.1 330 11.2 101950 51
2011-11-07 07:23:25 51°22.261 3°2.356 14.3 328 11.2 101940 51
2011-11-07 07:23:31 51°22.27 3°2.379 11.8 328 11.2 101940 51
2011-11-07 07:23:36 51°22.278 3°2.398 7.3 328 11.3 101960 52
2011-11-07 07:23:41 51°22.286 3°2.419 5.7 328 11.3 101960 52
2011-11-07 07:23:45 51°22.293 3°2.435 20.7 330 11.3 101960 50
2011-11-07 07:23:51 51°22.303 3°2.458 17.3 328 11.3 101960 50
2011-11-07 07:23:55 51°22.309 3°2.475 14.3 328 11.3 101940 52
2011-11-07 07:24:01 51°22.319 3°2.499 17 331 11.3 101940 52
2011-11-07 07:24:05 51°22.325 3°2.516 14.4 332 11.3 101950 52
2011-11-07 07:24:10 51°22.333 3°2.536 8.5 330 11.3 101950 52
2011-11-07 07:24:16 51°22.343 3°2.559 16.7 330 11.2 101950 52
2011-11-07 07:24:21 51°22.35 3°2.58 15.6 329 11.2 101950 52
2011-11-07 07:24:25 51°22.358 3°2.596 15.6 328 11.2 101950 51
2011-11-07 07:24:30 51°22.365 3°2.616 16.9 330 11.2 101950 51
2011-11-07 07:24:36 51°22.375 3°2.639 7.7 329 11.2 101970 51
2011-11-07 07:24:41 51°22.384 3°2.66 16.6 329 11.2 101970 51
2011-11-07 07:24:45 51°22.39 3°2.676 12 328 11.2 101960 50
2011-11-07 07:24:50 51°22.399 3°2.696 7.8 329 11.2 101960 50
2011-11-07 07:24:55 51°22.407 3°2.715 19.4 330 11.2 101950 51
2011-11-07 07:25:01 51°22.417 3°2.739 5.2 329 11.2 101950 51
2011-11-07 07:25:05 51°22.424 3°2.755 14.3 331 11.2 101940 51
2011-11-07 07:25:11 51°22.433 3°2.778 16.5 283 11.2 101940 51
2011-11-07 07:25:15 51°22.439 3°2.794 15.2 328 11.2 101950 50
2011-11-07 07:25:21 51°22.449 3°2.817 15.9 329 11.2 101950 50
2011-11-07 07:25:25 51°22.456 3°2.833 8.2 329 11.2 101950 51
2011-11-07 07:25:31 51°22.466 3°2.856 14.8 329 11.2 101950 51
2011-11-07 07:25:36 51°22.475 3°2.875 12.1 325 11.2 101950 51
2011-11-07 07:25:41 51°22.483 3°2.895 11.1 326 11.2 101950 51
2011-11-07 07:25:45 51°22.49 3°2.911 18.8 327 11.2 101960 51
2011-11-07 07:25:51 51°22.499 3°2.935 14 326 11.2 101960 51
2011-11-07 07:25:56 51°22.507 3°2.955 12.7 324 11.2 101970 51
2011-11-07 07:26:01 51°22.515 3°2.976 12 327 11.2 101970 51
2011-11-07 07:26:05 51°22.521 3°2.992 15.7 324 11.2 101950 51
2011-11-07 07:26:11 51°22.531 3°3.017 14.6 325 11.2 101950 51
2011-11-07 07:26:16 51°22.538 3°3.037 17.9 329 11.2 101960 51
2011-11-07 07:26:21 51°22.546 3°3.057 13.2 328 11.2 101960 51
2011-11-07 07:26:25 51°22.552 3°3.074 13.6 328 11.2 101950 50
2011-11-07 07:26:30 51°22.56 3°3.095 13.7 329 11.2 101950 50
2011-11-07 07:26:36 51°22.57 3°3.119 14.3 328 11.2 101950 51
2011-11-07 07:26:41 51°22.578 3°3.14 17 328 11.2 101950 51
2011-11-07 07:26:45 51°22.584 3°3.156 16.5 328 11.2 101960 51
2011-11-07 07:26:50 51°22.592 3°3.177 12.6 328 11.2 101960 51
2011-11-07 07:26:55 51°22.6 3°3.197 13 328 11.2 101940 51
2011-11-07 07:27:01 51°22.609 3°3.222 15.7 327 11.2 101940 51
2011-11-07 07:27:05 51°22.616 3°3.238 12.2 329 11.2 101960 50
2011-11-07 07:27:11 51°22.625 3°3.262 15.7 284 11.2 101960 50
2011-11-07 07:27:15 51°22.631 3°3.278 14.5 327 11.2 101950 51
2011-11-07 07:27:21 51°22.641 3°3.303 14.8 330 11.2 101950 51
2011-11-07 07:27:25 51°22.648 3°3.318 13.1 329 11.2 101960 51
2011-11-07 07:27:30 51°22.656 3°3.339 18.7 332 11.2 101960 51
2011-11-07 07:27:35 51°22.664 3°3.359 13.9 333 11.2 101950 50
2011-11-07 07:27:41 51°22.674 3°3.384 12.1 331 11.2 101950 50
2011-11-07 07:27:45 51°22.68 3°3.4 16.1 328 11.2 101950 50
2011-11-07 07:27:51 51°22.69 3°3.424 12.6 330 11.2 101950 50
2011-11-07 07:27:56 51°22.698 3°3.444 15.6 330 11.2 101950 51
2011-11-07 07:28:01 51°22.707 3°3.465 15.5 329 11.2 101950 51
2011-11-07 07:28:05 51°22.713 3°3.482 15.7 329 11.2 101970 51
2011-11-07 07:28:11 51°22.724 3°3.505 15.4 331 11.2 101970 51
2011-11-07 07:28:15 51°22.731 3°3.522 16.9 332 11.2 101970 50
2011-11-07 07:28:21 51°22.741 3°3.545 13.6 330 11.2 101970 50
2011-11-07 07:28:25 51°22.747 3°3.562 12.4 331 11.1 101960 51
2011-11-07 07:28:30 51°22.756 3°3.581 12.9 332 11.1 101960 51
2011-11-07 07:28:36 51°22.766 3°3.605 12.5 330 11.2 101960 51
2011-11-07 07:28:41 51°22.774 3°3.625 15 332 11.2 101960 51
2011-11-07 07:28:45 51°22.781 3°3.64 10.8 330 11.2 101980 51
2011-11-07 07:28:50 51°22.789 3°3.66 13.4 330 11.2 101980 51
2011-11-07 07:28:56 51°22.8 3°3.685 18.5 329 11.2 101970 51
2011-11-07 07:29:01 51°22.808 3°3.705 13.8 330 11.2 101970 51
2011-11-07 07:29:05 51°22.815 3°3.72 7.8 330 11.2 101970 50
2011-11-07 07:29:10 51°22.824 3°3.741 16.5 282 11.2 101970 50